Tracking 29090 objects as of 15-Jul-2024
HD Live streaming from Space Station
objects crossing your sky now

STARLINK-30193

Track STARLINK-30193 now!
10-day predictions
STARLINK-30193 is classified as:


NORAD ID: 57414
Int'l Code: 2023-102L
Perigee: 565.5 km
Apogee: 567.0 km
Inclination: 43.0 °
Period: 95.8 minutes
Semi major axis: 6937 km
RCS: Unknown
Launch date: July 20, 2023
Source: United States (US)
Launch site: AIR FORCE WESTERN TEST RANGE (AFWTR)
Your satellite tracking list
Your tracking list is empty




NASA's NSSDC Master Catalog

Two Line Element Set (TLE):
1 57414U 23102L   24196.57339846  .00000640  00000-0  62427-4 0  9991
2 57414  43.0017 285.9002 0001071 276.6648  83.4072 15.02534566 55519
Source of the keplerian elements: AFSPC